This is the latest recevied weather packets stored in our database for station/object vk4zu-13. If no packets are shown the sender has not sent any weather packets the latest 10 day(s).
| Time | Temp. | Humidity | Pressure | Rain* | Wind** | Luminosity | Snow |
|---|---|---|---|---|---|---|---|
| 1778205792 | 20.56° C | 28% | 1018.8 hPa | 0 mm | - | 737 W/m² | - |
| 1778205729 | 20.56° C | 26% | 1018.8 hPa | 0 mm | - | 735 W/m² | - |
| 1778205669 | 20.56° C | 25% | 1018.8 hPa | 0 mm | - | 735 W/m² | - |
| 1778205608 | 20.56° C | 29% | 1018.9 hPa | 0 mm | - | 735 W/m² | - |
| 1778205541 | 20.56° C | 25% | 1018.9 hPa | 0 mm | - | 737 W/m² | - |
| 1778205482 | 20.56° C | 26% | 1018.9 hPa | 0 mm | - | 737 W/m² | - |
| 1778205420 | 20.56° C | 28% | 1019 hPa | 0 mm | - | 737 W/m² | - |
| 1778205360 | 21.11° C | 25% | 1019 hPa | 0 mm | - | 737 W/m² | - |
| 1778205297 | 21.11° C | 26% | 1019.1 hPa | 0 mm | - | 737 W/m² | - |
| 1778205235 | 21.67° C | 25% | 1019 hPa | 0 mm | - | 737 W/m² | - |
| 1778205175 | 21.67° C | 26% | 1018.9 hPa | 0 mm | - | 737 W/m² | - |
| 1778205111 | 21.67° C | 29% | 1019 hPa | 0 mm | - | 737 W/m² | - |
| 1778205052 | 21.67° C | 27% | 1019 hPa | 0 mm | - | 738 W/m² | - |
| 1778204991 | 21.11° C | 26% | 1019 hPa | 0 mm | - | 737 W/m² | - |
| 1778204922 | 21.11° C | 29% | 1019.1 hPa | 0 mm | - | 738 W/m² | - |
| 1778204865 | 20.56° C | 27% | 1019 hPa | 0 mm | - | 737 W/m² | - |
| 1778204794 | 20.56° C | 28% | 1019 hPa | 0 mm | - | 737 W/m² | - |
| 1778204726 | 20.56° C | 27% | 1019.1 hPa | 0 mm | - | 742 W/m² | - |
| 1778204660 | 20.56° C | 26% | 1019.1 hPa | 0 mm | - | 745 W/m² | - |
| 1778204585 | 20.56° C | 27% | 1019.1 hPa | 0 mm | - | 686 W/m² | - |
| 1778204514 | 20.56° C | 30% | 1019 hPa | 0 mm | - | 749 W/m² | - |
| 1778204444 | 20.56° C | 29% | 1019.1 hPa | 0 mm | - | 742 W/m² | - |
| 1778204374 | 20.56° C | 26% | 1019.1 hPa | 0 mm | - | 738 W/m² | - |
| 1778204306 | 20.56° C | 27% | 1019.1 hPa | 0 mm | - | 738 W/m² | - |
| 1778204235 | 20.56° C | 27% | 1019.2 hPa | 0 mm | - | 740 W/m² | - |
* Rain latest hour (hover to see other rain measurements)
** Current wind speed in m/s (hover to see current wind gust speed)